Content
SEND FEEDBACK

Daily
Averages
Monthly
Summary
United States of America

ST. LOUIS, MISSOURI


Home > North America > United States > Missouri
Elevation: 535 feet     Latitude: 38 45N     Longitude: 090 22W

WEATHER
 
SELECT A DAY
Number of Records: 196,207;   Date Range: 1/1/95 - 7/7/14
 
SHARE

PRINT THIS DATA

[ ← Previous Day ]
WEATHER ALMANAC - FEBRUARY 24, 2013
[ Next Day → ]
[ °C ]   °F
Weather ElementAverageHighLow
Temperature29.5 °F44.1 °F (1:54 pm)12.9 °F (4:54 am)
Dewpoint19.3 °F25 °F (4:54 pm)9 °F (4:54 am)
Humidity68.6 %88 % (1:54 am)40 % (1:54 pm)
Barometer30.10 in30.16 in (8:54 am)30.06 in (4:54 pm)
Wind Speed4 mph10.4 mph (11:54 am)
Weather ElementAverage
Visibility7.6 mi
Wind DirectionENE (54.3 °)

Weather ElementTotal
Precipitation---
Heating Degree Days36.5 (Base 65)
Averaged from 23 records on February 24, 2013
WEATHER CONDITIONS BREAKOUT
WIND DIRECTION BREAKOUT
WEATHER BY HOUR - FEBRUARY 24, 2013
[ °C ]   °F
Local TimeTemperatureDewpointHumidityBarometerVisibilityWind DirectionWind SpeedGust SpeedPrecipitationEventsConditions
1:54 AM16.0 °F12.9 °F88 %30.08 in5.0 miCalmClear
2:54 AM15.1 °F12.0 °F88 %30.08 in3.0 miCalmClear
3:54 AM14.0 °F10.9 °F88 %30.08 in3.0 miCalmClear
4:54 AM12.9 °F9.0 °F84 %30.09 in4.0 miCalmClear
5:54 AM12.9 °F9.0 °F84 %30.12 in4.0 miCalmClear
6:54 AM12.9 °F9.0 °F84 %30.13 in3.0 miCalmClear
7:54 AM15.1 °F12.0 °F88 %30.14 in4.0 miCalmClear
8:54 AM21.9 °F18.0 °F85 %30.16 in5.0 miCalmClear
9:54 AM30.0 °F21.9 °F72 %30.15 in7.0 miENE (70°)3.5 mphClear
10:54 AM37.9 °F24.1 °F57 %30.15 in10.0 miNE (40°)3.5 mphClear
11:54 AM41.0 °F21.0 °F45 %30.14 in10.0 miEast (100°)10.4 mphClear
12:54 PM42.1 °F21.9 °F45 %30.12 in10.0 miEast (80°)8.1 mphClear
1:54 PM44.1 °F21.0 °F40 %30.10 in10.0 miEast (90°)5.8 mphClear
2:54 PM44.1 °F24.1 °F45 %30.08 in10.0 miEast (90°)10.4 mphClear
3:54 PM44.1 °F23.0 °F43 %30.07 in10.0 miEast (100°)8.1 mphClear
4:54 PM43.0 °F25.0 °F49 %30.06 in10.0 miEast (90°)8.1 mphClear
5:54 PM41.0 °F24.1 °F51 %30.08 in10.0 miEast (100°)8.1 mphClear
6:54 PM36.0 °F25.0 °F64 %30.09 in10.0 miEast (100°)4.6 mphClear
7:54 PM34.0 °F24.1 °F67 %30.09 in10.0 miEast (80°)5.8 mphClear
8:54 PM32.0 °F25.0 °F75 %30.08 in10.0 miEast (90°)4.6 mphClear
9:54 PM30.9 °F24.1 °F76 %30.07 in10.0 miENE (70°)4.6 mphClear
10:54 PM32.0 °F25.0 °F75 %30.06 in9.0 miENE (60°)3.5 mphClear
11:54 PM26.1 °F21.9 °F84 %30.06 in7.0 miEast (90°)3.5 mphClear
Hourly data recorded from KSUS, located miles away from St. Louis, Missouri







STORIES FROM OUR PARTNERS